Torna al catalogo

STARLINK-1351

AttivoComunicazioniVLEO
NORAD 45697·PAYLOAD·🇺🇸 United States

Lanciato Jun 4, 2020 da Cape Canaveral Space Force Station

Loading…

Prossimi Passaggi (prossime 24 ore)

TLE

AggiornatoSource: CelesTrak SupGP

Epoca: Sep 15, 2026, 01:20 UTC

1 45697C 20035AS  26258.05604167  .00068752  00000+0  40588-3 0  2586
2 45697  53.0339 170.6051 0005793 102.3948 241.5086 15.77392753    13

Traccia STARLINK-1351 in tempo reale con AllMySat

Download on the App Store